Location: Dumpton Point
(51.3500°N, 1.4433°E)
Time: 23:55:42
(UTC+00:00)

Vanguard 1 - Pass Details

Date: 02 October 2022
Orbit: 650 x 3831 km, 34.2° (Epoch: 03 December)

Event Time Altitude Azimuth Distance (km) Brightness Sun altitude
Rises 15:41:54 0° 246° (WSW) 6,602 16.2 15.3°
Reaches altitude 10° 15:47:40 10° 237° (WSW) 5,016 16.3 14.5°
Maximum altitude 15:57:48 28° 187° (S) 2,706 12.8 13.1°
Drops below altitude 10° 16:04:13 10° 131° (SE) 3,091 12.4 12.2°
Sets 16:06:50 0° 119° (ESE) 3,751 12.7 11.8°
